Weather History for Bishop, CA

Change the Weather History Date:

Monday, July 15, 2013

  Actual Average Record
Temperature  
Mean Temperature 81 °F 78 °F  
Max Temperature 101 °F 99 °F 109 °F (1972)
Min Temperature 60 °F 57 °F 47 °F (1993)
Degree Days  
Heating Degree Days 0 0  
Month to date heating degree days 0 0  
Since 1 June heating degree days 0 19  
Since 1 July heating degree days 0 0  
Cooling Degree Days 16 13  
Month to date cooling degree days 229 178  
Year to date cooling degree days 645 460  
Since 1 June cooling degree days 559 392  
Growing Degree Days 30 (Base 50)    
Moisture  
Dew Point 35 °F    
Average Humidity 24    
Maximum Humidity 36    
Minimum Humidity 11    
Precipitation  
Precipitation 0.00 in 0.00 in 0.06 in (1976)
Month to date precipitation T 0.08  
Year to date precipitation 0.47 3.15  
Snow  
Snow 0.00 in 0.00 in - ()
Month to date snowfall 0.0 0.0  
Since 1 June snowfall 0.0 0.0  
Since 1 July snowfall 0.0 0.0  
Snow Depth 0.00 in    
Sea Level Pressure  
Sea Level Pressure 29.72 in    
Wind  
Wind Speed 12 mph (SSE)    
Max Wind Speed 25 mph    
Max Gust Speed 35 mph    
Visibility 10 miles    
Events      
T = Trace of Precipitation, MM = Missing Value Source: NWS Daily Summary

Daily Weather History Graph

Daily Weather History Graph

Search for Another Location

Airport:

Trip Planner

Search our weather history database for the weather conditions in past years. The results will help you decide how hot, cold, wet, or windy it might be!

Date:

Astronomy

Jul. 15, 2013 Rise Set
Actual Time 5:44 AM PDT 8:13 PM PDT
Civil Twilight 5:14 AM PDT 8:43 PM PDT
Nautical Twilight 4:37 AM PDT 9:21 PM PDT
Astronomical Twilight 3:55 AM PDT 10:02 PM PDT
Moon 12:58 PM PDT (7/15) No Moon Set
Length of Visible Light 15h 29m
Length of Day
14h 28m
Waxing Crescent, 46% of the Moon is Illuminated
Jul 15
Waxing Crescent
Jul 15
First Quarter
Jul 22
Full
Jul 29
Last Quarter
Aug 6
New

Hourly Weather History & Observations

Time (PDT) Temp. Dew Point Humidity Pressure Visibility Wind Dir Wind Speed Gust Speed Precip Events Conditions
12:56 AM 72.0 °F 35.1 °F 26% 29.81 in 10.0 mi Calm Calm - N/A   Clear
1:56 AM 69.1 °F 35.1 °F 29% 29.81 in 10.0 mi Calm Calm - N/A   Clear
2:56 AM 66.9 °F 33.1 °F 28% 29.81 in 10.0 mi NNW 3.5 mph - N/A   Clear
3:56 AM 64.9 °F 34.0 °F 32% 29.81 in 10.0 mi NNE 4.6 mph - N/A   Mostly Cloudy
4:56 AM 64.0 °F 33.1 °F 31% 29.81 in 10.0 mi NW 5.8 mph - N/A   Partly Cloudy
5:56 AM 61.0 °F 34.0 °F 36% 29.82 in 10.0 mi North 5.8 mph - N/A   Clear
6:56 AM 70.0 °F 34.0 °F 27% 29.82 in 10.0 mi Calm Calm - N/A   Clear
7:56 AM 78.1 °F 37.0 °F 23% 29.81 in 10.0 mi NNW 5.8 mph - N/A   Clear
8:56 AM 82.9 °F 33.1 °F 17% 29.80 in 10.0 mi NNW 3.5 mph - N/A   Clear
9:56 AM 88.0 °F 32.0 °F 14% 29.77 in 10.0 mi Calm Calm - N/A   Clear
10:56 AM 91.9 °F 35.1 °F 13% 29.75 in 10.0 mi South 10.4 mph 19.6 mph N/A   Clear
11:56 AM 96.1 °F 42.1 °F 15% 29.71 in 10.0 mi SSE 15.0 mph 26.5 mph N/A   Clear
12:56 PM 97.0 °F 39.9 °F 14% 29.70 in 10.0 mi SSE 20.7 mph 29.9 mph N/A   Clear
1:56 PM 99.0 °F 39.0 °F 13% 29.66 in 10.0 mi SSE 23.0 mph 33.4 mph N/A   Clear
2:56 PM 100.0 °F 37.0 °F 11% 29.64 in 10.0 mi South 20.7 mph 31.1 mph N/A   Clear
3:56 PM 99.0 °F 36.0 °F 11% 29.63 in 10.0 mi South 20.7 mph 33.4 mph N/A   Clear
4:56 PM 100.0 °F 37.0 °F 11% 29.61 in 10.0 mi South 13.8 mph 27.6 mph N/A   Clear
5:56 PM 97.0 °F 37.0 °F 12% 29.61 in 10.0 mi SSE 16.1 mph 27.6 mph N/A   Clear
6:56 PM 93.9 °F 37.0 °F 14% 29.60 in 10.0 mi South 11.5 mph 25.3 mph N/A   Clear
7:56 PM 91.0 °F 37.0 °F 15% 29.61 in 10.0 mi SSE 13.8 mph - N/A   Clear
8:56 PM 88.0 °F 36.0 °F 16% 29.62 in 10.0 mi SSE 13.8 mph - N/A   Clear
9:56 PM 86.0 °F 36.0 °F 17% 29.65 in 10.0 mi SE 17.3 mph 21.9 mph N/A   Clear
10:56 PM 84.0 °F 33.1 °F 16% 29.68 in 10.0 mi SE 17.3 mph 24.2 mph N/A   Clear
11:56 PM 82.9 °F 30.0 °F 15% 29.69 in 10.0 mi SE 18.4 mph 26.5 mph N/A   Clear